This is the latest recevied weather packets stored in our database for station/object WX4ET. If no packets are shown the sender has not sent any weather packets the latest 10 day(s).
| Time | Temp. | Humidity | Pressure | Rain* | Wind** | Luminosity | Snow |
|---|---|---|---|---|---|---|---|
| 1777778532 | 7.22° C | 80% | 1012.1 hPa | 0 mm | - | 0 W/m² | - |
| 1777778229 | 7.78° C | 79% | 1012 hPa | 0 mm | - | 0 W/m² | - |
| 1777777927 | 7.78° C | 79% | 1012.1 hPa | 0 mm | - | 0 W/m² | - |
| 1777777623 | 7.78° C | 78% | 1012.1 hPa | 0 mm | - | 0 W/m² | - |
| 1777777319 | 8.33° C | 75% | 1011.9 hPa | 0 mm | - | 0 W/m² | - |
| 1777777016 | 8.33° C | 71% | 1012 hPa | 0 mm | - | 0 W/m² | - |
| 1777776714 | 8.33° C | 72% | 1012 hPa | 0 mm | - | 0 W/m² | - |
| 1777776410 | 8.33° C | 73% | 1012 hPa | 0 mm | - | 0 W/m² | - |
| 1777776108 | 8.33° C | 72% | 1011.9 hPa | 0 mm | - | 0 W/m² | - |
| 1777775805 | 8.33° C | 74% | 1011.7 hPa | 0 mm | - | 0 W/m² | - |
| 1777775501 | 8.89° C | 72% | 1011.6 hPa | 0 mm | - | 0 W/m² | - |
| 1777775197 | 8.89° C | 69% | 1011.6 hPa | 0 mm | - | 0 W/m² | - |
| 1777774892 | 8.89° C | 66% | 1011.5 hPa | 0 mm | - | 0 W/m² | - |
| 1777774589 | 9.44° C | 66% | 1011.6 hPa | 0 mm | - | 0 W/m² | - |
| 1777774286 | 9.44° C | 66% | 1011.4 hPa | 0 mm | - | 0 W/m² | - |
| 1777773982 | 9.44° C | 64% | 1011.7 hPa | 0 mm | - | 0 W/m² | - |
| 1777773680 | 10° C | 63% | 1011.5 hPa | 0 mm | - | 0 W/m² | - |
| 1777773377 | 9.44° C | 63% | 1011.4 hPa | 0 mm | - | 0 W/m² | - |
| 1777773074 | 9.44° C | 64% | 1011.3 hPa | 0 mm | - | 0 W/m² | - |
| 1777772770 | 10° C | 66% | 1011.3 hPa | 0 mm | - | 0 W/m² | - |
| 1777772467 | 10° C | 65% | 1011.1 hPa | 0 mm | - | 0 W/m² | - |
| 1777772165 | 10° C | 60% | 1011 hPa | 0 mm | - | 0 W/m² | - |
| 1777771863 | 10° C | 59% | 1011 hPa | 0 mm | - | 0 W/m² | - |
| 1777771560 | 10.56° C | 59% | 1011 hPa | 0 mm | - | 0 W/m² | - |
| 1777771256 | 10.56° C | 58% | 1010.7 hPa | 0 mm | - | 0 W/m² | - |
* Rain latest hour (hover to see other rain measurements)
** Current wind speed in m/s (hover to see current wind gust speed)